Time,TemperatureF,DewpointF,PressureIn,WindDirection,WindDirectionDegrees,WindSpeedMPH,WindSpeedGustMPH,Humidity,HourlyPrecipIn,Conditions,Clouds,dailyrainin,SoftwareType,DateUTC
2013-02-26 00:01:00,26.0,22.0,30.11,East,90,0.0,1.0,83,0.00,,,0.04,,2013-02-26 05:01:00,
2013-02-26 00:12:00,26.0,22.0,30.11,East,90,0.0,1.0,83,0.00,,,0.04,,2013-02-26 05:12:00,
2013-02-26 00:22:00,26.0,22.0,30.10,East,91,0.0,1.0,84,0.00,,,0.04,,2013-02-26 05:22:00,
2013-02-26 00:32:00,25.0,21.0,30.10,East,87,0.0,1.0,85,0.00,,,0.04,,2013-02-26 05:32:00,
2013-02-26 00:43:00,25.0,21.0,30.10,East,87,0.0,1.0,85,0.00,,,0.04,,2013-02-26 05:43:00,
2013-02-26 00:52:00,26.0,22.0,30.09,ENE,74,0.0,1.0,84,0.00,,,0.04,,2013-02-26 05:52:00,
2013-02-26 01:02:00,26.0,22.0,30.10,ENE,72,0.0,0.0,83,0.00,,,0.04,,2013-02-26 06:02:00,
2013-02-26 01:11:00,26.0,22.0,30.10,ENE,72,0.0,0.0,83,0.00,,,0.04,,2013-02-26 06:11:00,
2013-02-26 01:22:00,25.0,21.0,30.09,East,98,0.0,1.0,83,0.00,,,0.04,,2013-02-26 06:22:00,
2013-02-26 01:32:00,26.0,22.0,30.09,ENE,75,0.0,2.0,83,0.00,,,0.04,,2013-02-26 06:32:00,
2013-02-26 01:42:00,26.0,22.0,30.09,ENE,75,0.0,2.0,83,0.00,,,0.04,,2013-02-26 06:42:00,
2013-02-26 01:52:00,25.0,21.0,30.08,ENE,75,0.0,1.0,83,0.00,,,0.04,,2013-02-26 06:52:00,
2013-02-26 02:01:00,25.0,21.0,30.08,ENE,77,0.0,2.0,83,0.00,,,0.04,,2013-02-26 07:01:00,
2013-02-26 02:11:00,25.0,21.0,30.08,ENE,77,0.0,2.0,83,0.00,,,0.04,,2013-02-26 07:11:00,
2013-02-26 02:22:00,25.0,21.0,30.08,East,85,0.0,2.0,83,0.00,,,0.04,,2013-02-26 07:22:00,
2013-02-26 02:32:00,25.0,20.0,30.09,ENE,78,0.0,2.0,82,0.00,,,0.04,,2013-02-26 07:32:00,
2013-02-26 02:42:00,25.0,20.0,30.09,ENE,78,0.0,2.0,82,0.00,,,0.04,,2013-02-26 07:42:00,
2013-02-26 02:52:00,26.0,22.0,30.08,ENE,77,0.0,1.0,83,0.00,,,0.04,,2013-02-26 07:52:00,
2013-02-26 03:02:00,25.0,21.0,30.06,ENE,78,1.0,3.0,83,0.00,,,0.04,,2013-02-26 08:02:00,
2013-02-26 03:11:00,25.0,21.0,30.06,ENE,78,1.0,3.0,83,0.00,,,0.04,,2013-02-26 08:11:00,
2013-02-26 03:21:00,26.0,22.0,30.05,East,82,1.0,4.0,84,0.00,,,0.04,,2013-02-26 08:21:00,
2013-02-26 03:32:00,27.0,22.0,30.05,East,81,3.0,7.0,82,0.00,,,0.04,,2013-02-26 08:32:00,
2013-02-26 03:42:00,27.0,22.0,30.05,East,81,3.0,7.0,82,0.00,,,0.04,,2013-02-26 08:42:00,
2013-02-26 03:52:00,27.0,22.0,30.04,ENE,67,3.0,5.0,80,0.00,,,0.04,,2013-02-26 08:52:00,
2013-02-26 04:02:00,27.0,22.0,30.02,ENE,75,3.0,7.0,80,0.00,,,0.04,,2013-02-26 09:02:00,
2013-02-26 04:11:00,27.0,22.0,30.02,ENE,75,3.0,7.0,80,0.00,,,0.04,,2013-02-26 09:11:00,
2013-02-26 04:21:00,27.0,22.0,30.01,ENE,77,3.0,7.0,80,0.00,,,0.04,,2013-02-26 09:21:00,
2013-02-26 04:32:00,28.0,22.0,30.00,East,91,3.0,8.0,79,0.00,,,0.04,,2013-02-26 09:32:00,
2013-02-26 04:43:00,28.0,22.0,30.00,East,91,3.0,8.0,79,0.00,,,0.04,,2013-02-26 09:43:00,
2013-02-26 04:52:00,28.0,22.0,30.01,East,92,2.0,5.0,78,0.00,,,0.04,,2013-02-26 09:52:00,
2013-02-26 05:01:00,28.0,22.0,29.99,ENE,68,2.0,8.0,78,0.00,,,0.04,,2013-02-26 10:01:00,
2013-02-26 05:11:00,28.0,22.0,29.99,ENE,68,2.0,8.0,78,0.00,,,0.04,,2013-02-26 10:11:00,
2013-02-26 05:21:00,28.0,22.0,29.98,ENE,77,2.0,6.0,79,0.00,,,0.04,,2013-02-26 10:21:00,
2013-02-26 05:32:00,28.0,22.0,29.97,ENE,73,3.0,6.0,79,0.00,,,0.04,,2013-02-26 10:32:00,
2013-02-26 05:42:00,28.0,22.0,29.97,ENE,73,3.0,6.0,79,0.00,,,0.04,,2013-02-26 10:42:00,
2013-02-26 05:52:00,28.0,22.0,29.96,East,85,4.0,8.0,79,0.00,,,0.04,,2013-02-26 10:52:00,
2013-02-26 06:01:00,28.0,22.0,29.96,ENE,78,3.0,9.0,79,0.00,,,0.04,,2013-02-26 11:01:00,
2013-02-26 06:12:00,28.0,22.0,29.96,ENE,78,3.0,9.0,79,0.00,,,0.04,,2013-02-26 11:12:00,
2013-02-26 06:22:00,28.0,22.0,29.96,ENE,72,2.0,5.0,79,0.00,,,0.04,,2013-02-26 11:22:00,
2013-02-26 06:32:00,28.0,22.0,29.96,East,82,2.0,7.0,79,0.00,,,0.04,,2013-02-26 11:32:00,
2013-02-26 06:42:00,28.0,22.0,29.96,East,82,2.0,7.0,79,0.00,,,0.04,,2013-02-26 11:42:00,
2013-02-26 06:52:00,28.0,22.0,29.95,East,96,4.0,7.0,79,0.00,,,0.04,,2013-02-26 11:52:00,
2013-02-26 07:02:00,28.0,22.0,29.95,East,96,4.0,7.0,79,0.00,,,0.04,,2013-02-26 12:02:00,
2013-02-26 07:11:00,28.0,22.0,29.95,East,96,4.0,7.0,79,0.00,,,0.04,,2013-02-26 12:11:00,
2013-02-26 07:22:00,28.0,22.0,29.96,East,79,3.0,6.0,79,0.00,,,0.04,,2013-02-26 12:22:00,
2013-02-26 07:32:00,28.0,22.0,29.96,NE,42,3.0,6.0,79,0.00,,,0.04,,2013-02-26 12:32:00,
2013-02-26 07:42:00,28.0,22.0,29.96,NE,42,3.0,6.0,79,0.00,,,0.04,,2013-02-26 12:42:00,
2013-02-26 07:52:00,28.0,22.0,29.95,East,91,3.0,8.0,79,0.00,,,0.04,,2013-02-26 12:52:00,
2013-02-26 08:02:00,28.0,22.0,29.94,East,93,3.0,6.0,79,0.00,,,0.04,,2013-02-26 13:02:00,
2013-02-26 08:11:00,28.0,22.0,29.94,East,93,3.0,6.0,79,0.00,,,0.04,,2013-02-26 13:11:00,
2013-02-26 08:22:00,28.0,22.0,29.95,ENE,68,5.0,11.0,78,0.00,,,0.04,,2013-02-26 13:22:00,
2013-02-26 08:32:00,29.0,23.0,29.94,ENE,75,3.0,9.0,78,0.00,,,0.04,,2013-02-26 13:32:00,
2013-02-26 08:42:00,29.0,23.0,29.94,ENE,75,3.0,9.0,78,0.00,,,0.04,,2013-02-26 13:42:00,
2013-02-26 08:52:00,29.0,23.0,29.95,ESE,105,4.0,6.0,77,0.00,,,0.04,,2013-02-26 13:52:00,
2013-02-26 09:01:00,29.0,22.0,29.94,East,80,6.0,13.0,76,0.00,,,0.04,,2013-02-26 14:01:00,
2013-02-26 09:11:00,29.0,22.0,29.94,East,80,6.0,13.0,76,0.00,,,0.04,,2013-02-26 14:11:00,
2013-02-26 09:22:00,30.0,23.0,29.93,East,80,3.0,9.0,76,0.00,,,0.04,,2013-02-26 14:22:00,
2013-02-26 09:32:00,30.0,23.0,29.92,ENE,77,7.0,13.0,75,0.00,,,0.04,,2013-02-26 14:32:00,
2013-02-26 09:42:00,30.0,23.0,29.92,ENE,77,7.0,13.0,75,0.00,,,0.04,,2013-02-26 14:42:00,
2013-02-26 09:52:00,30.0,23.0,29.91,East,93,4.0,13.0,76,0.00,,,0.04,,2013-02-26 14:52:00,
2013-02-26 10:02:00,30.0,23.0,29.91,East,95,5.0,12.0,75,0.00,,,0.04,,2013-02-26 15:02:00,
2013-02-26 10:12:00,30.0,23.0,29.91,East,95,5.0,12.0,75,0.00,,,0.04,,2013-02-26 15:12:00,
2013-02-26 10:22:00,30.0,23.0,29.87,East,79,5.0,10.0,76,0.00,,,0.04,,2013-02-26 15:22:00,
2013-02-26 10:32:00,30.0,23.0,29.85,ENE,72,4.0,16.0,75,0.00,,,0.04,,2013-02-26 15:32:00,
2013-02-26 10:42:00,30.0,23.0,29.85,ENE,72,4.0,16.0,75,0.00,,,0.04,,2013-02-26 15:42:00,
2013-02-26 10:52:00,31.0,24.0,29.85,ESE,104,4.0,13.0,75,0.00,,,0.04,,2013-02-26 15:52:00,
2013-02-26 11:02:00,32.0,24.0,29.84,ENE,73,6.0,13.0,73,0.00,,,0.04,,2013-02-26 16:02:00,
2013-02-26 11:11:00,32.0,24.0,29.84,ENE,73,6.0,13.0,73,0.00,,,0.04,,2013-02-26 16:11:00,
2013-02-26 11:22:00,33.0,25.0,29.83,East,94,7.0,14.0,72,0.00,,,0.04,,2013-02-26 16:22:00,
2013-02-26 11:32:00,33.0,25.0,29.82,ENE,73,6.0,12.0,71,0.00,,,0.04,,2013-02-26 16:32:00,
2013-02-26 11:42:00,33.0,25.0,29.82,ENE,73,6.0,12.0,71,0.00,,,0.04,,2013-02-26 16:42:00,
2013-02-26 11:52:00,33.0,25.0,29.81,ENE,75,6.0,14.0,72,0.00,,,0.04,,2013-02-26 16:52:00,
2013-02-26 12:01:00,33.0,25.0,29.80,ESE,116,3.0,13.0,72,0.00,,,0.04,,2013-02-26 17:01:00,
2013-02-26 12:11:00,33.0,25.0,29.80,ESE,116,3.0,13.0,72,0.00,,,0.04,,2013-02-26 17:11:00,
2013-02-26 12:22:00,34.0,26.0,29.80,East,82,3.0,9.0,71,0.00,,,0.04,,2013-02-26 17:22:00,
2013-02-26 12:32:00,34.0,26.0,29.80,ENE,77,6.0,15.0,71,0.00,,,0.04,,2013-02-26 17:32:00,
2013-02-26 12:42:00,34.0,26.0,29.80,ENE,77,6.0,15.0,71,0.00,,,0.04,,2013-02-26 17:42:00,
2013-02-26 12:52:00,34.0,26.0,29.79,East,91,6.0,10.0,73,0.00,,,0.04,,2013-02-26 17:52:00,
2013-02-26 13:02:00,33.0,27.0,29.76,ENE,76,5.0,16.0,77,0.00,,,0.04,,2013-02-26 18:02:00,
2013-02-26 13:12:00,33.0,27.0,29.76,ENE,76,5.0,16.0,77,0.00,,,0.04,,2013-02-26 18:12:00,
2013-02-26 13:21:00,32.0,27.0,29.75,East,82,7.0,16.0,81,0.00,,,0.04,,2013-02-26 18:21:00,
2013-02-26 13:32:00,32.0,27.0,29.74,ENE,77,6.0,13.0,82,0.00,,,0.01,,2013-02-26 18:32:00,
2013-02-26 13:42:00,32.0,27.0,29.74,ENE,77,6.0,13.0,82,0.00,,,0.01,,2013-02-26 18:42:00,
2013-02-26 13:52:00,33.0,28.0,29.71,ENE,70,10.0,15.0,82,0.00,,,0.01,,2013-02-26 18:52:00,
2013-02-26 14:02:00,33.0,29.0,29.71,ENE,66,6.0,16.0,84,0.00,,,0.01,,2013-02-26 19:02:00,
2013-02-26 14:11:00,33.0,29.0,29.71,ENE,66,6.0,16.0,84,0.00,,,0.01,,2013-02-26 19:11:00,
2013-02-26 14:22:00,33.0,29.0,29.69,East,84,6.0,17.0,85,0.00,,,0.01,,2013-02-26 19:22:00,
2013-02-26 14:32:00,32.0,29.0,29.67,East,81,6.0,12.0,88,0.00,,,0.00,,2013-02-26 19:32:00,
2013-02-26 14:42:00,32.0,29.0,29.67,East,81,6.0,12.0,88,0.00,,,0.00,,2013-02-26 19:42:00,
2013-02-26 14:52:00,32.0,29.0,29.66,ENE,70,7.0,14.0,89,0.00,,,0.00,,2013-02-26 19:52:00,
2013-02-26 15:01:00,32.0,29.0,29.65,ENE,77,9.0,16.0,88,0.00,,,0.00,,2013-02-26 20:01:00,
2013-02-26 15:11:00,32.0,29.0,29.65,ENE,77,9.0,16.0,88,0.00,,,0.00,,2013-02-26 20:11:00,
2013-02-26 15:22:00,32.0,29.0,29.65,ENE,71,6.0,11.0,89,0.00,,,0.00,,2013-02-26 20:22:00,
2013-02-26 15:32:00,32.0,29.0,29.65,NE,53,5.0,12.0,90,0.00,,,0.00,,2013-02-26 20:32:00,
2013-02-26 15:41:00,32.0,29.0,29.65,NE,53,5.0,12.0,90,0.00,,,0.00,,2013-02-26 20:41:00,
2013-02-26 15:52:00,32.0,30.0,29.65,ENE,71,6.0,14.0,91,0.00,,,0.00,,2013-02-26 20:52:00,
2013-02-26 16:01:00,32.0,30.0,29.63,East,96,7.0,12.0,92,0.00,,,0.00,,2013-02-26 21:01:00,
2013-02-26 16:11:00,32.0,30.0,29.63,East,96,7.0,12.0,92,0.00,,,0.00,,2013-02-26 21:11:00,
2013-02-26 16:21:00,32.0,30.0,29.64,ENE,78,8.0,12.0,93,0.00,,,0.00,,2013-02-26 21:21:00,
2013-02-26 16:31:00,32.0,30.0,29.65,East,96,4.0,12.0,93,0.00,,,0.00,,2013-02-26 21:31:00,
2013-02-26 16:41:00,32.0,30.0,29.65,East,96,4.0,12.0,93,0.00,,,0.00,,2013-02-26 21:41:00,
2013-02-26 16:51:00,32.0,30.0,29.64,ENE,71,5.0,14.0,94,0.00,,,0.00,,2013-02-26 21:51:00,
2013-02-26 17:01:00,32.0,30.0,29.63,East,82,5.0,11.0,94,0.00,,,0.00,,2013-02-26 22:01:00,
2013-02-26 17:11:00,32.0,30.0,29.63,East,82,5.0,11.0,94,0.00,,,0.00,,2013-02-26 22:11:00,
2013-02-26 17:21:00,32.0,31.0,29.62,East,81,5.0,14.0,95,0.00,,,0.00,,2013-02-26 22:21:00,
2013-02-26 17:32:00,32.0,31.0,29.62,ENE,70,5.0,9.0,95,0.00,,,0.00,,2013-02-26 22:32:00,
2013-02-26 17:42:00,32.0,31.0,29.62,ENE,70,5.0,9.0,95,0.00,,,0.00,,2013-02-26 22:42:00,
2013-02-26 17:51:00,32.0,31.0,29.61,ENE,60,8.0,15.0,96,0.00,,,0.00,,2013-02-26 22:51:00,
2013-02-26 18:01:00,32.0,31.0,29.60,ENE,77,5.0,11.0,97,0.00,,,0.00,,2013-02-26 23:01:00,
2013-02-26 18:11:00,32.0,31.0,29.60,ENE,77,5.0,11.0,97,0.00,,,0.00,,2013-02-26 23:11:00,
2013-02-26 18:21:00,32.0,31.0,29.60,ENE,77,5.0,11.0,97,0.00,,,0.00,,2013-02-26 23:21:00,
2013-02-26 18:32:00,32.0,31.0,29.59,East,91,4.0,13.0,97,0.00,,,0.00,,2013-02-26 23:32:00,
2013-02-26 18:42:00,32.0,31.0,29.59,East,91,4.0,13.0,97,0.00,,,0.00,,2013-02-26 23:42:00,
2013-02-26 18:52:00,32.0,32.0,29.59,ESE,102,5.0,11.0,98,0.00,,,0.00,,2013-02-26 23:52:00,
2013-02-26 19:02:00,32.0,32.0,29.59,East,101,4.0,9.0,98,0.00,,,0.00,,2013-02-27 00:02:00,
2013-02-26 19:11:00,32.0,32.0,29.59,East,101,4.0,9.0,98,0.00,,,0.00,,2013-02-27 00:11:00,
2013-02-26 19:22:00,32.0,32.0,29.58,ENE,72,5.0,10.0,98,0.00,,,0.00,,2013-02-27 00:22:00,
2013-02-26 19:32:00,32.0,32.0,29.58,East,87,5.0,9.0,98,0.00,,,0.00,,2013-02-27 00:32:00,
2013-02-26 19:42:00,32.0,32.0,29.58,East,87,5.0,9.0,98,0.00,,,0.00,,2013-02-27 00:42:00,
2013-02-26 19:51:00,32.0,32.0,29.58,East,93,6.0,8.0,98,0.00,,,0.00,,2013-02-27 00:51:00,
2013-02-26 20:01:00,32.0,32.0,29.57,East,90,4.0,10.0,98,0.00,,,0.00,,2013-02-27 01:01:00,
2013-02-26 20:11:00,32.0,32.0,29.57,East,90,4.0,10.0,98,0.00,,,0.00,,2013-02-27 01:11:00,
2013-02-26 20:22:00,32.0,32.0,29.57,ESE,108,4.0,11.0,98,0.00,,,0.00,,2013-02-27 01:22:00,
2013-02-26 20:32:00,32.0,32.0,29.57,ENE,73,4.0,10.0,98,0.00,,,0.00,,2013-02-27 01:32:00,
2013-02-26 20:42:00,32.0,32.0,29.57,ENE,73,4.0,10.0,98,0.00,,,0.00,,2013-02-27 01:42:00,
2013-02-26 20:52:00,32.0,32.0,29.57,East,87,3.0,8.0,98,0.00,,,0.00,,2013-02-27 01:52:00,
2013-02-26 21:02:00,32.0,32.0,29.55,ENE,77,4.0,9.0,98,0.00,,,0.00,,2013-02-27 02:02:00,
2013-02-26 21:16:00,32.0,32.0,29.55,ENE,77,4.0,9.0,98,0.00,,,0.00,,2013-02-27 02:16:00,
2013-02-26 21:24:00,32.0,32.0,29.55,East,80,4.0,7.0,98,0.00,,,0.00,,2013-02-27 02:24:00,
2013-02-26 21:32:00,32.0,32.0,29.55,East,79,1.0,5.0,98,0.00,,,0.00,,2013-02-27 02:32:00,
2013-02-26 21:42:00,32.0,32.0,29.55,East,79,1.0,5.0,98,0.00,,,0.00,,2013-02-27 02:42:00,
2013-02-26 21:52:00,32.0,32.0,29.54,ENE,67,4.0,9.0,98,0.00,,,0.00,,2013-02-27 02:52:00,
2013-02-26 22:02:00,32.0,32.0,29.54,ENE,73,3.0,9.0,98,0.00,,,0.00,,2013-02-27 03:02:00,
2013-02-26 22:11:00,32.0,32.0,29.54,ENE,73,3.0,9.0,98,0.00,,,0.00,,2013-02-27 03:11:00,
2013-02-26 22:22:00,32.0,32.0,29.54,ENE,73,3.0,9.0,98,0.00,,,0.00,,2013-02-27 03:22:00,
2013-02-26 22:32:00,32.0,32.0,29.52,East,90,2.0,5.0,98,0.00,,,0.00,,2013-02-27 03:32:00,
2013-02-26 22:42:00,32.0,32.0,29.52,East,90,2.0,5.0,98,0.00,,,0.00,,2013-02-27 03:42:00,
2013-02-26 22:52:00,32.0,32.0,29.52,ENE,75,5.0,7.0,98,0.00,,,0.00,,2013-02-27 03:52:00,
2013-02-26 23:02:00,32.0,32.0,29.51,East,80,3.0,5.0,99,0.00,,,0.00,,2013-02-27 04:02:00,
2013-02-26 23:12:00,32.0,32.0,29.51,East,80,3.0,5.0,99,0.00,,,0.00,,2013-02-27 04:12:00,
2013-02-26 23:22:00,32.0,32.0,29.50,East,94,3.0,7.0,99,0.00,,,0.00,,2013-02-27 04:22:00,
2013-02-26 23:32:00,32.0,32.0,29.50,East,89,1.0,4.0,99,0.00,,,0.00,,2013-02-27 04:32:00,
2013-02-26 23:42:00,32.0,32.0,29.50,East,89,1.0,4.0,99,0.00,,,0.00,,2013-02-27 04:42:00,
2013-02-26 23:52:00,32.0,32.0,29.50,East,80,3.0,9.0,99,0.00,,,0.00,,2013-02-27 04:52:00,